Wind_Speed
6 6 6 5 5 5 8 6 4 7 9 10 9 8 9 10 11 11 11 11 10 11 11 11 10 11 11 11 10 10 10 10 10 10 10 10 9 9 8 8 8 8 7 7 6 6 5 5 4
5 5 5 5 6 9 11 10 10 11 12 12 11 10 12 12 13 12 12 12 12 12 12 12 12 12 12 12 12 11 10 11 10 10 10 10 10 10 9 9 9 9 9 8 8 7 7 6 5
6 6 5 5 8 11 11 12 12 13 13 12 12 13 14 14 14 14 13 13 13 13 13 13 14 14 13 13 12 11 11 12 12 12 12 12 12 11 11 11 11 11 11 10 10 9 9 8 8
7 7 5 5 6 8 10 14 14 11 13 11 10 15 16 16 16 15 15 15 14 14 14 14 15 14 14 14 13 13 13 13 13 13 14 14 13 13 13 13 13 13 12 12 12 11 11 11 10
10 8 6 5 7 10 11 15 14 10 12 13 13 17 17 17 17 17 17 17 16 15 15 15 15 15 15 15 14 14 14 14 15 15 15 16 16 16 16 15 15 14 14 14 14 14 13 13 13
13 11 8 6 10 11 13 16 15 13 13 14 12 17 19 19 18 18 19 19 18 16 16 16 16 16 16 16 16 15 16 16 17 17 17 18 18 18 18 17 17 16 16 16 15 15 15 15 15
15 14 11 8 9 12 15 18 16 16 16 16 16 19 23 21 19 19 19 19 19 17 17 17 17 17 17 18 17 17 18 18 19 19 20 20 20 20 20 19 19 19 18 18 17 17 17 17 17
18 16 13 9 8 11 14 17 17 18 18 18 19 21 25 22 20 20 20 20 21 20 18 19 19 18 18 19 19 19 20 20 21 22 22 22 22 22 23 22 21 21 20 20 20 19 19 19 19
19 18 15 11 11 14 17 20 20 20 18 20 22 22 24 24 21 21 21 22 22 23 21 21 20 20 21 21 21 22 22 22 24 25 25 25 25 25 26 25 24 24 23 22 22 21 21 21 21
21 20 16 15 16 18 21 23 23 20 19 22 25 23 23 25 23 23 23 23 23 24 24 23 22 22 23 23 22 23 24 25 26 26 27 28 28 28 29 27 27 26 25 24 24 23 23 23 23
22 21 19 18 19 21 22 23 22 21 21 24 27 28 25 27 26 25 25 25 25 25 25 25 25 25 26 26 25 26 26 27 29 29 29 30 31 31 31 29 28 29 28 27 26 26 25 25 24
23 22 21 20 20 22 23 23 24 24 24 26 29 31 29 28 28 28 28 27 27 26 27 28 28 28 29 30 29 29 30 31 31 32 33 34 33 33 33 32 30 30 30 29 28 27 28 27 27
22 21 21 21 21 22 22 22 23 25 26 28 29 29 28 27 28 29 29 29 29 28 29 30 31 31 32 33 33 32 33 34 35 36 36 36 36 35 33 33 33 32 31 31 30 29 28 27 27
20 19 19 19 19 20 20 20 23 25 25 26 26 26 27 27 28 29 31 31 30 30 31 33 32 33 34 36 36 36 36 37 38 38 39 39 38 36 35 35 35 35 34 33 33 31 29 28 28
16 15 14 15 17 18 18 18 22 24 24 25 25 25 26 27 27 29 31 31 32 32 33 35 34 35 36 37 38 38 39 39 40 41 41 40 40 39 37 36 36 37 37 36 34 32 32 30 29
9 9 9 11 14 16 16 18 23 25 24 24 24 25 25 25 27 28 30 31 32 33 34 35 36 37 38 39 39 40 40 40 41 42 41 40 40 40 39 37 36 37 37 36 34 33 32 32 30
6 9 10 12 15 15 16 19 25 26 26 24 24 24 24 24 25 27 28 29 31 32 34 36 38 39 40 40 41 42 42 42 43 42 41 42 42 41 39 39 37 36 36 36 34 33 33 32 31
9 10 11 13 16 17 17 21 24 26 25 24 23 23 23 23 24 25 27 29 30 32 34 37 39 40 41 41 42 42 43 43 44 43 42 44 43 42 41 39 38 37 36 35 34 34 33 32 33
13 12 10 13 17 19 19 22 24 24 23 21 21 21 22 23 24 25 27 29 31 33 34 36 38 39 41 42 42 43 44 44 44 43 43 43 41 40 38 37 36 36 35 35 35 35 34 33 33
10 9 11 15 17 19 18 22 23 21 19 17 18 20 22 23 24 25 26 28 30 32 33 35 37 38 40 41 42 43 44 44 44 43 42 41 40 38 37 34 33 34 34 33 35 36 36 34 33
8 12 15 15 17 18 20 23 24 22 17 14 17 20 23 25 26 27 28 29 30 32 33 35 37 38 40 41 42 43 43 43 44 43 41 40 39 37 35 33 31 31 32 33 34 34 35 35 34
12 13 14 14 16 17 22 29 29 24 16 13 18 21 24 26 27 28 29 30 31 33 35 36 37 39 40 41 42 43 42 42 43 43 42 41 39 38 36 34 33 31 31 33 34 34 34 34 33
12 11 13 15 17 19 24 28 26 17 18 20 22 24 26 28 30 31 32 33 34 36 37 38 39 39 40 41 42 42 42 42 42 41 40 40 40 40 37 36 35 34 33 32 33 34 34 34 34
10 10 12 16 18 22 23 25 23 15 20 22 25 28 30 31 33 34 35 36 36 37 37 38 39 40 41 41 42 42 41 41 41 42 41 41 40 40 39 38 38 37 36 35 34 34 36 37 37
9 11 13 17 18 21 16 15 15 19 23 26 28 31 33 35 36 36 37 37 36 37 38 38 39 40 40 41 41 41 42 42 42 42 42 42 41 41 41 39 38 39 38 38 37 36 37 38 38
9 11 13 17 18 19 16 17 18 21 25 28 31 33 35 36 37 37 38 38 38 38 38 38 39 39 39 40 41 42 43 44 43 43 44 44 43 43 44 43 41 41 40 40 39 38 39 39 39
9 9 10 12 12 16 21 23 23 25 28 30 32 35 36 37 37 38 38 38 38 38 38 39 39 39 39 40 41 43 44 44 44 44 45 45 46 46 46 46 45 45 44 43 43 43 43 43 43
10 10 10 10 10 11 18 24 25 28 29 31 34 36 36 37 37 37 37 38 38 38 38 39 40 40 41 41 42 43 43 44 45 46 47 48 48 49 49 49 48 47 47 47 48 47 46 47 48
10 11 11 11 12 12 15 24 26 29 31 33 35 36 37 37 37 37 38 38 38 39 39 40 41 41 41 42 43 43 44 45 46 47 48 49 49 50 50 50 50 50 50 50 50 50 50 51 51
11 12 12 13 13 13 13 23 28 31 33 35 36 37 37 37 37 38 38 38 38 39 40 40 41 41 42 43 43 44 46 47 47 48 49 50 50 50 51 51 51 51 51 52 53 53 54 54 54
Wind_Direction
20 21 22 20 3 18 54 42 359 336 328 331 331 328 310 302 302 299 297 297 296 294 295 296 299 301 303 306 310 314 317 319 321 319 317 318 319 319 320 323 325 326 326 324 323 325 328 332 334
353 355 357 354 344 358 13 359 337 326 328 330 329 321 310 312 310 307 303 299 298 295 293 294 297 298 299 301 304 307 310 312 313 312 310 310 312 312 311 311 313 313 313 311 308 306 306 306 306
325 326 337 344 358 354 351 329 324 326 326 325 324 313 312 312 311 308 304 302 299 296 294 293 296 297 296 297 300 303 306 307 307 305 304 304 304 305 305 303 304 304 304 302 299 296 293 291 289
307 308 317 333 353 338 325 315 317 325 318 321 319 303 305 309 308 306 303 301 298 297 296 295 296 296 296 297 298 300 302 302 301 300 299 299 299 300 301 300 299 298 298 296 294 291 287 283 281
296 296 298 330 328 314 308 308 314 314 308 310 307 297 298 302 303 301 299 299 299 300 299 298 297 295 296 296 296 298 298 299 299 298 298 297 297 298 297 296 295 293 292 291 289 286 283 279 276
291 289 290 303 306 310 308 303 304 295 295 294 294 294 294 298 299 299 298 299 299 301 300 299 299 297 297 298 297 298 298 299 299 298 297 298 296 297 296 293 292 291 288 286 285 283 280 277 273
287 285 281 274 287 300 298 296 296 289 291 287 289 292 290 292 296 300 301 301 299 299 300 300 299 298 299 300 300 300 300 299 298 297 296 296 297 295 295 293 291 288 286 284 283 282 279 276 272
283 281 278 276 271 282 281 281 284 288 291 289 287 286 287 292 295 299 299 299 298 298 300 300 301 299 299 300 300 300 299 297 296 296 295 294 294 294 292 291 290 287 284 281 280 279 278 274 271
280 277 274 270 261 270 268 271 278 288 291 285 280 277 284 288 292 295 296 296 297 297 297 297 298 298 296 297 298 299 299 297 296 295 294 292 292 290 288 288 287 284 281 280 278 277 275 274 271
278 276 269 260 253 264 268 271 275 279 276 275 276 276 277 283 288 292 293 293 294 295 296 297 298 298 297 297 298 298 298 296 295 295 293 292 291 288 285 284 285 282 279 277 275 274 271 271 269
277 276 268 258 257 263 268 272 275 272 270 272 273 276 279 282 286 289 288 288 290 293 296 297 300 301 300 299 299 299 298 297 296 296 293 291 290 289 285 283 283 281 278 275 272 271 269 268 266
277 275 272 264 260 264 268 270 272 270 269 270 272 275 278 281 283 283 284 286 288 289 293 295 297 298 298 298 298 298 297 297 296 296 295 292 290 290 287 284 281 280 279 276 272 270 268 267 265
277 277 276 271 266 268 271 270 270 271 271 271 273 274 273 273 277 279 279 285 283 285 289 292 293 295 295 295 296 296 296 297 296 296 296 293 290 289 288 285 280 281 279 276 273 270 269 267 263
275 274 275 274 272 272 272 272 272 271 274 276 277 276 276 275 276 276 280 283 282 285 286 287 287 289 291 292 292 293 295 295 295 294 294 294 290 287 284 283 281 280 279 277 274 270 270 267 263
279 280 278 276 273 275 277 275 271 272 275 277 278 276 275 275 273 274 277 279 282 283 282 284 285 287 288 289 291 290 291 293 293 292 291 291 290 288 285 281 277 277 277 278 274 269 268 267 264
291 298 293 277 268 275 278 271 270 272 278 282 281 279 276 274 275 275 275 276 279 280 282 282 283 285 286 287 289 290 290 292 293 293 289 288 289 286 282 281 276 275 275 274 271 268 267 265 264
331 303 288 265 264 268 269 268 272 277 281 283 283 281 280 279 277 277 276 276 277 279 280 280 282 283 285 286 288 290 290 291 292 293 290 289 288 288 282 280 276 273 273 270 269 268 266 264 262
276 260 250 255 262 268 273 273 274 278 281 285 286 286 285 284 282 280 279 279 278 279 279 280 283 283 284 284 286 287 288 289 290 291 291 291 288 286 282 278 275 272 270 268 265 266 263 262 261
259 248 248 254 258 268 274 272 276 277 282 286 290 292 291 290 288 285 283 281 281 281 282 282 283 282 282 283 284 285 286 287 287 289 290 291 290 287 281 278 272 271 269 267 264 263 261 259 260
262 262 259 256 262 271 274 270 275 276 280 285 294 299 299 297 294 291 288 286 284 284 283 283 283 283 283 284 285 285 285 285 286 287 289 289 290 288 284 280 276 269 266 265 264 261 258 256 254
264 255 253 262 271 274 277 275 275 278 279 288 304 307 305 302 299 296 293 290 288 287 286 286 286 286 286 286 286 287 286 287 286 286 286 287 287 288 285 281 276 271 266 264 261 257 255 254 251
269 259 259 265 273 277 275 272 275 275 285 308 312 312 310 308 304 301 299 296 293 292 290 289 288 288 288 287 287 288 287 287 287 286 285 284 284 283 282 279 276 272 266 263 259 255 252 248 244
280 279 277 272 271 265 265 269 276 289 308 319 319 317 313 310 306 304 302 300 298 296 294 293 291 290 290 289 289 289 289 288 287 286 285 283 282 282 281 279 276 272 267 263 260 254 249 242 240
286 286 286 286 283 275 275 277 282 308 321 325 324 319 315 312 310 307 305 303 302 299 297 296 294 293 292 291 291 290 289 288 288 287 286 284 282 280 278 276 274 273 268 264 262 255 249 243 241
287 293 298 302 305 304 299 297 291 314 323 324 321 317 315 313 312 310 308 307 305 303 300 298 296 295 294 293 293 291 290 289 288 287 286 284 281 279 277 275 272 271 268 263 260 256 252 246 241
305 313 317 319 326 329 330 323 328 326 323 321 318 316 315 315 314 313 311 310 309 308 306 304 302 299 297 296 294 293 292 290 289 287 285 283 281 278 276 274 272 268 265 262 258 254 251 248 245
313 313 306 314 327 330 327 323 322 325 322 320 319 318 318 317 316 315 314 313 312 310 309 307 305 303 300 298 296 294 292 291 289 288 286 284 281 278 275 273 270 267 264 260 257 254 250 247 246
324 318 318 323 322 329 324 316 318 321 322 323 321 321 320 319 318 317 317 316 315 313 311 310 308 306 304 301 299 297 295 292 290 289 287 284 282 279 275 271 268 265 263 259 255 252 249 247 246
330 327 326 322 321 327 325 312 319 321 326 326 325 324 323 322 321 320 319 318 317 315 314 313 311 309 307 304 302 299 297 295 292 290 288 285 282 279 276 271 266 263 260 258 254 252 251 248 245
336 334 333 333 335 336 328 314 321 326 330 328 327 326 325 324 323 322 321 320 319 318 317 315 313 311 309 307 304 301 299 297 294 291 288 285 282 278 275 271 267 262 258 256 254 252 250 248 246
Height
5922 5922 5922 5922 5922 5919 5915 5917 5918 5918 5918 5918 5917 5916 5914 5913 5914 5915 5912 5911 5911 5910 5909 5909 5908 5908 5908 5907 5906 5906 5905 5905 5904 5904 5903 5903 5902 5901 5900 5900 5899 5899 5898 5897 5897 5896 5896 5895 5894
5923 5923 5923 5923 5921 5917 5916 5917 5918 5919 5918 5917 5916 5915 5913 5912 5912 5912 5910 5910 5910 5909 5908 5908 5907 5907 5906 5906 5905 5904 5904 5903 5903 5903 5902 5902 5901 5900 5900 5899 5899 5898 5897 5897 5896 5896 5895 5895 5894
5923 5922 5923 5923 5921 5919 5919 5920 5920 5919 5918 5917 5915 5914 5913 5912 5911 5910 5909 5908 5908 5907 5907 5906 5906 5905 5905 5904 5903 5903 5902 5902 5902 5901 5901 5900 5900 5899 5899 5898 5897 5897 5896 5896 5895 5895 5895 5894 5894
5922 5923 5923 5924 5922 5921 5921 5921 5920 5919 5917 5914 5914 5912 5911 5910 5909 5909 5908 5907 5907 5906 5905 5904 5904 5903 5903 5902 5902 5901 5901 5900 5900 5899 5899 5899 5898 5898 5897 5896 5896 5895 5895 5894 5894 5893 5893 5893 5893
5920 5921 5922 5922 5922 5921 5921 5920 5919 5918 5916 5914 5912 5909 5908 5908 5907 5907 5906 5905 5905 5904 5903 5903 5902 5901 5901 5900 5899 5899 5898 5898 5898 5897 5897 5896 5896 5895 5895 5894 5894 5893 5893 5892 5892 5892 5891 5891 5891
5919 5920 5920 5921 5921 5921 5920 5918 5917 5917 5915 5912 5909 5905 5904 5904 5904 5904 5903 5902 5902 5902 5901 5901 5900 5899 5898 5898 5897 5897 5896 5896 5895 5895 5894 5894 5893 5893 5892 5891 5891 5891 5890 5890 5889 5889 5889 5889 5889
5917 5917 5918 5919 5921 5921 5920 5917 5915 5913 5912 5910 5907 5903 5901 5901 5901 5901 5900 5900 5899 5899 5898 5898 5897 5896 5896 5895 5895 5894 5894 5893 5892 5892 5891 5890 5890 5889 5889 5888 5888 5887 5887 5887 5886 5886 5886 5886 5886
5914 5915 5915 5916 5919 5920 5918 5914 5912 5910 5909 5907 5905 5903 5899 5898 5898 5899 5898 5897 5896 5896 5896 5895 5894 5893 5893 5892 5891 5891 5890 5890 5889 5888 5887 5887 5886 5885 5884 5884 5884 5883 5883 5883 5883 5882 5882 5882 5883
5910 5912 5912 5913 5914 5915 5912 5910 5908 5907 5907 5904 5901 5899 5896 5895 5895 5896 5896 5894 5893 5891 5892 5891 5891 5890 5889 5888 5887 5887 5886 5885 5885 5884 5883 5882 5881 5880 5880 5879 5879 5878 5878 5878 5878 5878 5878 5878 5878
5906 5907 5908 5909 5909 5909 5907 5906 5905 5905 5902 5899 5896 5894 5892 5892 5891 5893 5893 5891 5890 5888 5887 5887 5887 5886 5885 5884 5884 5882 5882 5881 5879 5879 5878 5877 5876 5875 5874 5874 5873 5872 5873 5873 5873 5873 5874 5874 5874
5901 5902 5902 5902 5902 5903 5902 5901 5900 5899 5898 5895 5893 5890 5889 5889 5888 5888 5888 5886 5886 5885 5884 5883 5882 5882 5880 5880 5879 5878 5877 5876 5874 5873 5872 5871 5870 5869 5868 5868 5868 5866 5867 5867 5868 5868 5868 5869 5869
5896 5896 5896 5897 5897 5897 5896 5896 5895 5894 5893 5891 5888 5887 5887 5886 5885 5883 5882 5881 5880 5880 5880 5878 5878 5877 5876 5874 5874 5873 5872 5871 5869 5868 5866 5864 5863 5862 5861 5861 5861 5860 5860 5861 5861 5862 5862 5863 5863
5890 5891 5891 5891 5892 5891 5891 5891 5890 5888 5887 5885 5884 5882 5880 5880 5880 5879 5876 5875 5873 5874 5874 5874 5873 5872 5871 5869 5868 5867 5866 5864 5863 5862 5860 5857 5856 5855 5854 5853 5854 5853 5853 5854 5854 5855 5856 5856 5857
5885 5886 5886 5886 5887 5887 5887 5886 5884 5882 5881 5879 5879 5878 5875 5875 5876 5874 5872 5870 5868 5868 5869 5869 5868 5867 5866 5864 5862 5860 5859 5858 5855 5854 5852 5850 5849 5848 5847 5846 5845 5845 5845 5846 5847 5848 5849 5849 5850
5881 5882 5882 5882 5882 5882 5882 5881 5879 5876 5876 5874 5873 5872 5871 5870 5870 5869 5868 5866 5864 5864 5864 5862 5862 5861 5859 5857 5855 5853 5852 5850 5848 5846 5844 5842 5841 5840 5838 5837 5837 5838 5837 5838 5839 5840 5842 5843 5844
5878 5878 5879 5880 5879 5879 5879 5877 5874 5871 5869 5868 5868 5867 5866 5864 5864 5864 5863 5862 5861 5859 5858 5856 5855 5854 5852 5850 5848 5846 5844 5842 5840 5838 5835 5833 5832 5830 5829 5829 5828 5829 5829 5830 5831 5832 5834 5836 5837
5875 5877 5878 5878 5876 5876 5875 5872 5869 5867 5866 5865 5864 5863 5861 5860 5859 5858 5857 5856 5855 5854 5852 5850 5849 5847 5845 5843 5842 5839 5837 5834 5832 5830 5827 5826 5824 5822 5820 5820 5819 5820 5821 5821 5822 5824 5826 5828 5830
5874 5876 5877 5876 5873 5872 5870 5869 5865 5862 5861 5860 5859 5858 5857 5856 5854 5853 5852 5851 5849 5848 5846 5844 5842 5840 5838 5836 5834 5832 5830 5827 5824 5822 5820 5817 5815 5813 5811 5811 5811 5811 5812 5813 5814 5816 5818 5820 5822
5871 5872 5873 5872 5868 5868 5867 5864 5860 5856 5855 5855 5854 5853 5852 5850 5849 5847 5846 5845 5843 5841 5839 5837 5835 5832 5830 5828 5826 5823 5821 5819 5816 5814 5811 5808 5806 5804 5803 5801 5801 5802 5803 5804 5806 5808 5810 5812 5814
5868 5869 5869 5869 5866 5865 5863 5859 5855 5849 5850 5850 5850 5849 5847 5846 5844 5842 5840 5838 5836 5834 5832 5830 5827 5824 5822 5819 5817 5815 5812 5810 5807 5805 5803 5800 5798 5796 5795 5794 5793 5793 5795 5796 5797 5799 5802 5804 5806
5866 5866 5865 5864 5863 5861 5859 5854 5848 5844 5844 5845 5845 5845 5843 5841 5839 5836 5834 5832 5830 5827 5825 5822 5819 5816 5813 5810 5808 5805 5802 5800 5798 5796 5794 5792 5790 5788 5787 5785 5785 5785 5786 5787 5788 5790 5793 5796 5798
5863 5861 5860 5860 5859 5857 5854 5847 5842 5840 5839 5840 5841 5840 5838 5836 5833 5830 5827 5825 5822 5819 5816 5813 5810 5807 5804 5800 5798 5795 5792 5790 5787 5785 5784 5782 5781 5780 5779 5778 5778 5777 5778 5778 5779 5780 5784 5786 5790
5860 5859 5859 5857 5855 5854 5848 5842 5835 5832 5836 5837 5836 5835 5833 5830 5827 5824 5821 5817 5814 5811 5807 5804 5801 5798 5794 5790 5787 5784 5781 5779 5776 5774 5773 5772 5771 5770 5769 5769 5769 5769 5769 5770 5771 5772 5775 5778 5781
5858 5857 5856 5853 5851 5849 5844 5840 5835 5831 5833 5832 5831 5830 5828 5825 5821 5817 5813 5810 5806 5802 5798 5794 5791 5787 5784 5780 5776 5773 5770 5768 5765 5763 5762 5761 5760 5759 5758 5759 5759 5759 5760 5761 5763 5764 5767 5769 5773
5857 5856 5854 5850 5846 5842 5839 5835 5833 5832 5832 5830 5828 5826 5822 5819 5814 5810 5805 5801 5797 5793 5789 5785 5781 5777 5773 5769 5766 5762 5759 5757 5754 5752 5750 5749 5748 5748 5747 5748 5749 5749 5750 5751 5753 5755 5758 5760 5764
5855 5853 5853 5849 5846 5841 5836 5833 5832 5832 5831 5828 5825 5821 5817 5813 5808 5803 5797 5793 5788 5784 5779 5774 5770 5767 5763 5759 5755 5751 5748 5745 5742 5740 5738 5736 5736 5736 5735 5736 5737 5738 5739 5740 5742 5745 5748 5751 5755
5854 5852 5851 5849 5847 5844 5838 5834 5832 5831 5829 5826 5822 5817 5812 5807 5801 5796 5790 5785 5780 5774 5770 5765 5760 5756 5752 5748 5744 5740 5736 5732 5729 5727 5724 5722 5722 5721 5721 5722 5723 5724 5726 5728 5730 5733 5737 5740 5744
5853 5851 5849 5848 5846 5845 5841 5835 5833 5830 5827 5823 5817 5812 5807 5801 5795 5789 5783 5777 5772 5766 5761 5756 5750 5746 5741 5736 5732 5727 5723 5720 5716 5713 5710 5708 5706 5705 5705 5706 5708 5709 5711 5713 5716 5720 5723 5728 5731
5852 5850 5847 5846 5844 5843 5840 5836 5831 5826 5823 5818 5812 5806 5800 5794 5788 5782 5776 5770 5764 5758 5752 5746 5741 5735 5730 5724 5719 5715 5710 5706 5702 5698 5695 5692 5690 5688 5687 5688 5690 5692 5695 5697 5700 5704 5708 5713 5717
5850 5848 5846 5845 5842 5840 5839 5835 5828 5823 5819 5813 5807 5801 5795 5788 5782 5775 5769 5762 5756 5750 5744 5737 5731 5725 5719 5713 5707 5702 5697 5692 5687 5682 5678 5675 5673 5671 5669 5670 5671 5673 5676 5680 5684 5687 5692 5696 5701